CW1172 Weather Reports


Display with metric or nautical units.
time (UTC)temp
F
wind
direction
speed
MPH
gust
MPH
rain 1hr
in
rain 24hr
in
rain mn
in
humidity
%
barometer
mb
20260509130051 64 285 0.0 0.0 0.00 0.00 0.00 38 1021.2
20260509124550 64 307 0.0 0.0 0.00 0.00 0.00 38 1021.3
20260509121547 65 269 0.0 0.0 0.00 0.00 0.00 40 1021.6
20260509120058 64 360 0.0 0.0 0.00 0.00 0.00 41 1021.7
20260509114543 64 319 0.0 0.0 0.00 0.00 0.00 41 1021.9
20260509111544 64 324 0.0 0.0 0.00 0.00 0.00 40 1022.1
20260509110045 64 315 0.0 0.0 0.00 0.00 0.00 40 1022.4
20260509104540 63 246 0.0 0.0 0.00 0.00 0.00 39 1022.7
20260509101550 62 284 0.0 0.0 0.00 0.00 0.00 41 1022.9
20260509100043 62 360 0.0 0.0 0.00 0.00 0.00 42 1023.1
20260509094536 63 245 0.0 0.0 0.00 0.00 0.00 41 1023.1
20260509091536 62 311 0.0 0.0 0.00 0.00 0.00 44 1023.3
20260509090041 62 286 0.0 0.0 0.00 0.00 0.00 47 1023.2
20260509084538 62 42 0.0 0.0 0.00 0.00 0.00 50 1023.2
20260509081527 59 280 0.0 0.0 0.00 0.00 0.00 55 1023.3
20260509080027 59 256 0.0 0.0 0.00 0.00 0.00 53 1023.3
20260509074525 60 360 0.0 0.0 0.00 0.00 0.00 55 1023.4
20260509071532 59 248 0.0 0.0 0.00 0.00 0.00 61 1023.5
20260509070026 58 360 0.0 0.0 0.00 0.00 0.00 65 1023.5
20260509064523 57 360 0.0 0.0 0.00 0.00 0.00 67 1023.6
20260509061511 55 360 0.0 0.0 0.00 0.00 0.00 74 1023.5
20260509060013 53 186 0.0 0.0 0.00 0.00 0.00 79 1023.5
20260509054504 51 157 0.0 0.0 0.00 0.00 0.00 80 1023.5
20260509051558 45 147 0.0 0.0 0.00 0.00 0.00 86 1023.5
20260509050059 42 146 0.0 0.0 0.00 0.00 0.00 85 1023.4
20260509044556 41 146 0.0 0.0 0.00 0.00 0.00 84 1023.4
20260509041557 38 146 0.0 0.0 0.00 0.00 0.00 84 1023.3
20260509040125 38 147 0.0 0.0 0.00 0.00 0.00 84 1023.3
20260509034600 38 146 0.0 0.0 0.00 0.00 0.00 84 1023.4
20260509031558 38 146 0.0 0.0 0.00 0.00 0.00 83 1023.6
20260509030051 38 148 0.0 0.0 0.00 0.00 0.00 83 1023.5
20260509024550 39 148 0.0 0.0 0.00 0.00 0.00 82 1023.6
20260509021547 40 148 0.0 0.0 0.00 0.00 0.00 81 1023.7
20260509020045 41 146 0.0 0.0 0.00 0.00 0.00 80 1023.7
20260509014542 41 147 0.0 0.0 0.00 0.00 0.00 79 1023.6
20260509011553 44 146 0.0 0.0 0.00 0.00 0.00 78 1023.6
20260509010045 44 148 0.0 0.0 0.00 0.00 0.00 77 1023.9
20260509004548 43 138 0.0 0.0 0.00 0.00 0.00 79 1023.8
20260509001537 43 116 0.0 0.0 0.00 0.00 0.00 77 1023.9
20260509000035 43 117 0.0 0.0 0.00 0.00 0.00 76 1023.8
20260508234532 44 116 0.0 0.0 0.00 0.00 0.00 75 1023.8
20260508231529 45 116 0.0 0.0 0.00 0.00 0.00 73 1023.8
20260508230027 46 144 0.0 0.0 0.00 0.00 0.00 72 1023.9
20260508224527 46 144 0.0 0.0 0.00 0.00 0.00 71 1023.8
20260508221523 47 125 0.0 0.0 0.00 0.00 0.00 71 1023.8
20260508220024 47 126 0.0 0.0 0.00 0.00 0.00 71 1023.7
20260508214522 46 123 0.0 0.0 0.00 0.00 0.00 71 1023.7
20260508211521 46 136 0.0 0.0 0.00 0.00 0.00 71 1023.5
20260508210021 46 136 0.0 0.0 0.00 0.00 0.00 70 1023.5
20260508204530 47 138 0.0 0.0 0.00 0.00 0.00 69 1023.3
20260508201520 48 138 0.0 0.0 0.00 0.00 0.00 67 1023.1
20260508200017 49 137 0.0 0.0 0.00 0.00 0.00 65 1023.0
20260508194515 50 137 0.0 0.0 0.00 0.00 0.00 63 1022.9
20260508191528 53 245 0.0 0.0 0.00 0.00 0.00 57 1022.8
20260508190027 54 360 0.0 0.0 0.00 0.00 0.00 54 1022.7
20260508184528 55 245 0.0 0.0 0.00 0.00 0.00 49 1022.6
20260508181518 57 360 0.0 0.0 0.00 0.00 0.00 48 1022.5
20260508180020 57 360 0.0 0.0 0.00 0.00 0.00 46 1022.5
20260508174516 58 277 0.0 0.0 0.00 0.00 0.00 45 1022.5
20260508171514 59 296 0.0 0.0 0.00 0.00 0.00 43 1022.2
20260508170016 60 298 0.0 0.0 0.00 0.00 0.00 43 1022.2
20260508164514 61 360 0.0 0.0 0.00 0.00 0.00 43 1022.1
20260508161511 62 299 0.0 0.0 0.00 0.00 0.00 42 1022.1
20260508160025 63 360 0.0 0.0 0.00 0.00 0.00 40 1022.1
20260508154511 64 360 0.0 0.0 0.00 0.00 0.00 40 1022.2
20260508151516 64 313 0.0 0.0 0.00 0.00 0.00 37 1022.2
20260508150020 64 360 0.0 0.0 0.00 0.00 0.00 36 1022.2
20260508144515 65 297 0.0 0.0 0.00 0.00 0.00 36 1022.2
20260508141510 65 269 0.0 0.0 0.00 0.00 0.00 36 1022.2
20260508140016 65 237 0.0 0.0 0.00 0.00 0.00 37 1022.2
20260508134521 66 360 0.0 0.0 0.00 0.00 0.00 37 1022.3
20260508131516 67 288 0.0 0.0 0.00 0.00 0.00 34 1022.3